Погода в Дударевой

Россия / Тюменская область     57°07′00″N   65°28′02″E
темп.,
°C
ветер,
м/с
пор.,
м/с
влажн.,
%
обл.,
%
осадки,
мм/ч
давл.,
гПа
погр.,
м
6 марта, сб
сб623:00−6юз2393100 0.0 99787
02:00−6з3891100 0.1 997268
05:00−11з5129290 0.1 1001366
08:00−12з5138757 0.0 1004491
11:00−8з6117828 0.0 1005959
14:00−6з5107964 0.1 10061264
17:00−6зюз498582 0.1 10061116
20:00−8зюз41193100 0.4 1007817
7 марта, вс
вс723:00−12з3108985 0.5 1009299
02:00−15з38920 0.0 1010192
05:00−18зюз23940 0.0 101243
08:00−18юз229454 0.0 101233
11:00−11ююз238253 0.0 1012286
14:00−8юв2384100 0.0 1010490
17:00−9в2494100 0.3 1007330
20:00−10ссв3695100 0.9 1003269
8 марта, пн
пн823:00−10ссз4795100 2.0 1002305
02:00−11сз51093100 0.6 1003463
05:00−17зсз499495 0.6 1006246
08:00−19з379763 0.0 1007176
11:00−13зюз368940 0.0 1009358
14:00−11ююз478387 0.0 1008663
17:00−10ю389193 0.1 1007724
20:00−11ю3119497 0.2 1006433
9 марта, вт
вт923:00−10ю4119497 0.3 1005464
02:00−7ю41193100 0.1 1003523
05:00−7ююз51490100 0.2 1002590
08:00−6юз51191100 0.1 1002637
11:00−4юз4788100 0.4 1002770
14:00−2зюз3584100 0.5 1003828
17:00−3з378098 1.0 1004650
20:00−9з128879 0.0 100621
10 марта, ср
ср1023:00−8зюз129690 0.7 100827
02:00−11зюз389193 0.3 1008234
05:00−15юз379660 0.3 1009140
08:00−17зюз389560 0.0 1009198
11:00−12зюз369055 0.0 1009336
14:00−8з468149 0.0 1010894
17:00−9зсз368374 0.1 1009868
20:00−15зсз239490 0.0 101033